Location: Dalton
(42.4737°N, 73.1662°W)
Time: 14:18:21
(UTC+00:00)

ARIANE 6 FM1 Upper Stage - Visible Passes

Search period start: 19 September 2024 00:00
Search period end: 29 September 2024 00:00
Orbit: 566 x 594 km, 62.0° (Epoch: 19 September)

Date Brightness Start Highest point End Pass type
(mag) Time Alt. Az. Time Alt. Az. Time Alt. Az.
19 Sep 4.2 00:32:01 10° S 00:33:45 21° S 00:33:45 21° S visible
19 Sep 5.8 07:17:09 10° N 07:19:00 12° NNE 07:20:52 10° NE visible
19 Sep 3.4 08:54:58 10° NNW 08:59:16 57° NE 09:03:34 10° SE visible
20 Sep 2.7 00:36:18 10° SSW 00:40:28 56° ESE 00:40:51 54° E visible
20 Sep 5.7 02:16:47 10° W 02:17:18 12° W 02:17:18 12° W visible
20 Sep 5.5 07:22:33 14° N 07:24:04 16° NNE 07:26:52 10° ENE visible
20 Sep 2.7 08:59:37 10° NW 09:04:01 90° E 09:08:23 10° SE visible
21 Sep 2.6 00:40:53 10° SW 00:45:09 89° NW 00:47:28 27° NE visible
21 Sep 5.7 02:22:25 10° WNW 02:23:53 14° NW 02:23:53 14° NW visible
21 Sep 5.1 07:29:13 22° NE 07:29:13 22° NE 07:32:29 10° E visible
21 Sep 2.8 09:05:41 19° NW 09:08:41 56° WSW 09:12:57 10° SSE visible
22 Sep 3.3 00:45:41 10° SW 00:49:53 56° NW 00:53:29 14° NNE visible
22 Sep 5.9 02:28:25 10° NW 02:29:53 12° NNW 02:29:53 12° NNW visible
22 Sep 5.2 07:36:20 19° E 07:36:20 19° E 07:37:51 10° ESE visible
22 Sep 3.3 09:12:50 33° WSW 09:13:17 34° WSW 09:17:13 10° S visible
22 Sep 3.7 23:11:51 10° S 23:15:27 27° ESE 23:19:06 10° ENE visible
23 Sep 4.2 00:50:42 10° WSW 00:54:40 36° NW 00:58:42 10° NNE visible
23 Sep 4.7 09:20:06 15° SSW 09:20:06 15° SSW 09:21:07 10° SSW visible
23 Sep 3.1 23:15:57 10° SSW 23:20:01 44° ESE 23:24:07 10° NE visible
24 Sep 4.9 00:55:56 10° W 00:59:31 25° NW 01:03:08 10° NNE visible
24 Sep 2.7 23:20:22 10° SSW 23:24:36 74° SE 23:28:55 10° NE visible
25 Sep 5.4 01:01:24 10° W 01:04:26 18° NW 01:07:29 10° N visible
25 Sep 3.1 23:25:02 10° SW 23:29:16 70° NW 23:33:35 10° NE visible
26 Sep 5.6 01:07:09 10° WNW 01:09:24 14° NNW 01:11:39 10° N visible
26 Sep 3.9 23:29:54 10° WSW 23:33:59 44° NW 23:38:08 10° NNE visible
27 Sep 5.8 01:13:34 10° NW 01:14:25 10° NNW 01:15:15 10° NNW visible
27 Sep 4.6 23:34:58 10° WSW 23:38:46 30° NW 23:42:36 10° NNE visible
28 Sep 5.1 23:40:17 10° W 23:43:36 21° NW 23:46:57 10° NNE visible
